TimePDT,TemperatureF,Dew PointF,Humidity,Sea Level PressureIn,VisibilityMPH,Wind Direction,Wind SpeedMPH,Gust SpeedMPH,PrecipitationIn,Events,Conditions,WindDirDegrees,DateUTC
12:53 AM,57.0,39.0,51,29.98,10.0,West,17.3,24.2,N/A,,Overcast,280,2013-04-29 07:53:00
1:53 AM,54.0,43.0,66,29.96,10.0,WNW,11.5,23.0,N/A,,Overcast,290,2013-04-29 08:53:00
2:53 AM,53.1,43.0,69,29.95,10.0,NNE,5.8,-,N/A,,Mostly Cloudy,30,2013-04-29 09:53:00
3:53 AM,57.0,42.1,57,29.93,10.0,WNW,16.1,28.8,N/A,,Clear,290,2013-04-29 10:53:00
4:53 AM,55.0,43.0,64,29.93,10.0,WNW,9.2,20.7,N/A,,Clear,300,2013-04-29 11:53:00
5:53 AM,53.1,44.1,71,29.94,10.0,West,17.3,28.8,N/A,,Scattered Clouds,280,2013-04-29 12:53:00
6:53 AM,52.0,39.9,63,29.96,10.0,West,21.9,33.4,N/A,,Partly Cloudy,280,2013-04-29 13:53:00
7:53 AM,52.0,36.0,54,29.99,10.0,WNW,27.6,42.6,N/A,,Clear,290,2013-04-29 14:53:00
8:53 AM,52.0,36.0,54,30.03,10.0,WNW,21.9,36.8,N/A,,Partly Cloudy,290,2013-04-29 15:53:00
9:53 AM,52.0,33.1,49,30.04,10.0,WNW,29.9,42.6,N/A,,Clear,300,2013-04-29 16:53:00
10:53 AM,55.0,33.1,43,30.06,10.0,WNW,21.9,31.1,N/A,,Mostly Cloudy,300,2013-04-29 17:53:00
11:53 AM,57.9,34.0,41,30.08,10.0,NW,20.7,29.9,N/A,,Scattered Clouds,310,2013-04-29 18:53:00
12:53 PM,57.9,34.0,41,30.07,10.0,NW,24.2,32.2,N/A,,Partly Cloudy,310,2013-04-29 19:53:00
1:53 PM,60.1,30.0,32,30.06,10.0,NW,25.3,40.3,N/A,,Clear,310,2013-04-29 20:53:00
2:53 PM,61.0,28.0,29,30.05,10.0,WNW,31.1,40.3,N/A,,Clear,290,2013-04-29 21:53:00
3:53 PM,60.1,26.1,27,30.05,10.0,WNW,24.2,41.4,N/A,,Clear,290,2013-04-29 22:53:00
4:53 PM,60.1,24.1,25,30.06,10.0,West,24.2,34.5,N/A,,Partly Cloudy,270,2013-04-29 23:53:00
5:53 PM,59.0,24.1,26,30.07,10.0,WNW,24.2,42.6,N/A,,Partly Cloudy,290,2013-04-30 00:53:00
6:53 PM,55.9,27.0,33,30.08,10.0,NW,9.2,25.3,N/A,,Overcast,310,2013-04-30 01:53:00
7:53 PM,53.1,24.1,32,30.08,10.0,West,23.0,27.6,N/A,,Mostly Cloudy,280,2013-04-30 02:53:00
8:53 PM,51.1,26.1,38,30.10,10.0,WNW,17.3,25.3,N/A,,Clear,290,2013-04-30 03:53:00
9:53 PM,48.9,25.0,39,30.11,10.0,WNW,11.5,21.9,N/A,,Clear,290,2013-04-30 04:53:00
10:53 PM,48.0,26.1,42,30.11,10.0,WNW,19.6,29.9,N/A,,Clear,300,2013-04-30 05:53:00
11:53 PM,46.0,27.0,47,30.12,10.0,WNW,20.7,27.6,N/A,,Clear,290,2013-04-30 06:53:00